Location: Unspecified
(0.0000°N, 0.0000°E)
Time: 09:54:04
(UTC+00:00)

Vanguard 2 - Pass Details

Date: 28 October 2021
Orbit: 554 x 2936 km, 32.9° (Epoch: 06 December)

Event Time Altitude Azimuth Distance (km) Brightness Sun altitude
Rises 09:16:08 0° 290° (WNW) 2,810 10.1 51.1°
Reaches altitude 10° 09:18:34 10° 280° (W) 1,836 9.2 51.7°
Maximum altitude 09:22:12 34° 213° (SSW) 929 8.3 52.5°
Drops below altitude 10° 09:26:06 10° 147° (SSE) 1,982 10.3 53.4°
Sets 09:28:51 0° 137° (SE) 3,079 11.1 54.0°
